This is the latest recevied weather packets stored in our database for station/object SPDRWX. If no packets are shown the sender has not sent any weather packets the latest 10 day(s).
| Time | Temp. | Humidity | Pressure | Rain* | Wind** | Luminosity | Snow |
|---|---|---|---|---|---|---|---|
| 1777662956 | 14.44° C | 19% | 1014.5 hPa | 0 mm | - | - | - |
| 1777662348 | 14.44° C | 20% | 1014.7 hPa | 0 mm | - | - | - |
| 1777662048 | 14.44° C | 20% | 1014.7 hPa | 0 mm | - | - | - |
| 1777661748 | 14.44° C | 20% | 1014.8 hPa | 0 mm | - | - | - |
| 1777661643 | 14.44° C | 20% | 1014.7 hPa | 0 mm | - | - | - |
| 1777661444 | 13.89° C | 20% | 1014.9 hPa | 0 mm | - | - | - |
| 1777660115 | 13.89° C | 21% | 1014.7 hPa | 0 mm | - | - | - |
| 1777659933 | 13.89° C | 21% | 1015 hPa | 0 mm | - | - | - |
| 1777659790 | 13.89° C | 21% | 1014.8 hPa | 0 mm | - | - | - |
| 1777657683 | 12.78° C | 23% | 1014.9 hPa | 0 mm | - | - | - |
| 1777657387 | 12.78° C | 23% | 1014.9 hPa | 0 mm | - | - | - |
| 1777657077 | 12.78° C | 24% | 1014.8 hPa | 0 mm | - | - | - |
| 1777656478 | 12.78° C | 24% | 1014.9 hPa | 0 mm | - | - | - |
| 1777656406 | 12.22° C | 26% | 1014.8 hPa | 0 mm | - | - | - |
| 1777655770 | 12.22° C | 27% | 1014.9 hPa | 0 mm | - | - | - |
| 1777655076 | 11.67° C | 28% | 1014.7 hPa | 0 mm | - | - | - |
| 1777654647 | 11.67° C | 28% | 1014.8 hPa | 0 mm | - | - | - |
| 1777654513 | 11.67° C | 28% | 1014.6 hPa | 0 mm | - | - | - |
| 1777654210 | 11.67° C | 29% | 1014.7 hPa | 0 mm | - | - | - |
| 1777653913 | 11.11° C | 29% | 1014.6 hPa | 0 mm | - | - | - |
| 1777653218 | 11.11° C | 30% | 1014.7 hPa | 0 mm | - | - | - |
| 1777653007 | 11.11° C | 31% | 1014.7 hPa | 0 mm | - | - | - |
| 1777652899 | 11.11° C | 31% | 1014.8 hPa | 0 mm | - | - | - |
| 1777652656 | 10.56° C | 32% | 1014.7 hPa | 0 mm | - | - | - |
| 1777652362 | 10.56° C | 32% | 1014.6 hPa | 0 mm | - | - | - |
* Rain since midnight (hover to see other rain measurements)
** Current wind speed in m/s (hover to see current wind gust speed)